sat.trackr.live / text

‹ back to catalog

KORSAT-1

NORAD 59452 · 2024-066L

PAYLOAD ACTIVE UNKNOWN

§ Identity

Operator
Country
SKOR
Launch date
2024-04-07
Launch site
AFETR
Launch vehicle
Mass (kg)
RCS (m²)

External: N2YO · Heavens-Above · Gunter

§ Orbital elements

Epoch: 2026-05-25T02:26:49.801056Z

Period
96.10 min
Inclination
45.4122°
Eccentricity
0.0007067
Mean motion
14.98364108 rev/d
Perigee alt
567.0 km
Apogee alt
576.9 km
Semi-major
6,950.1 km
B*
2.6314e-4
RAAN
3.8613°
Arg perigee
290.6924°
Mean anomaly
69.3196°
Rev number
11,659

§ Raw data

KORSAT-11 59452U 24066L   26145.10196529  .00002956  00000+0  26314-3 0  99942 59452  45.4122   3.8613 0007067 290.6924  69.3196 14.98364108116598

JSON: /api/v1/satellites/59452 · /tle

For live sub-satellite position, see the globe view (requires WebGL).

§ Visibility from observer

Set your observer location to see the next 7 days of passes ≥ 10°. The values pass through the URL so the page stays shareable.

No JS? Fill the form by hand. The geolocation button needs JavaScript.